Location: B�rgermoos
(47.6500°N, 9.0667°E)
Time: 18:14:35
(UTC+00:00)

A-11 Canister half - Pass Details

Date: 11 August 2021
Orbit: 1526 x 1683 km, 47.3° (Epoch: 20 September)

Event Time Altitude Azimuth Distance (km) Brightness Sun altitude
Rises 10:39:31 0° 266° (W) 4,933 11.6 55.9°
Reaches altitude 10° 10:42:41 10° 267° (W) 3,947 11.2 56.1°
Maximum altitude 10:52:54 89° 181° (S) 1,679 10.4 56.6°
Drops below altitude 10° 11:02:57 10° 91° (E) 3,887 11.4 57.0°
Sets 11:06:03 0° 92° (E) 4,856 11.7 57.1°
